Regional Weather Roundup
Issued by NWS

Home | Current Version | Previous Version | Graphics & Text | Print | Product List | Glossary On
Versions: 1 2 3 4 5 6 7 8 9 10 11 12 13 14 15 16 17 18 19 20 21 22 23 24 25 26 27 28 29 30 31 32 33 34 35 36 37 38 39 40 41 42 43 44 45 46 47 48 49 50
000
ASUS43 KOAX 041310
RWRNE

WEATHER ROUNDUP FOR NEBRASKA
NATIONAL WEATHER SERVICE OMAHA NE
700 AM CST WED MAR 04 2015

NOTES: SATELLITE DATA IS BEING USED TO AUGMENT CLOUD COVER ABOVE
       12000 FEET.
       "FAIR" INDICATES FEW OR NO CLOUDS BELOW 12,000 FEET WITH NO
       SIGNIFICANT WEATHER AND/OR OBSTRUCTIONS TO VISIBILITY.

  * THESE STATIONS DO NOT REPORT WEATHER SUCH AS RAIN...SNOW OR FOG.

NEZ001>004-019>022-054>056-041400-
NEBRASKA PANHANDLE

CITY           SKY/WX    TMP DP  RH WIND       PRES   REMARKS
SCOTTSBLUFF    MOCLDY     9   4  80 NW9       30.13S WCI  -4
ALLIANCE       PTCLDY    -1  -6  79 W12       30.11R WCI -18
CHADRON        PTCLDY    -5 -10  79 W3        30.16R
KIMBALL        CLOUDY     4   0  83 SW5       30.07S WCI  -5
SIDNEY         CLOUDY     9   4  80 NW9       30.13R WCI  -4
$$

NEZ057>060-069>072-079>082-041400-
SOUTHWEST NEBRASKA

CITY           SKY/WX    TMP DP  RH WIND       PRES   REMARKS
NORTH PLATTE   PTCLDY     7   4  87 NW5       30.21R WCI  -2
IMPERIAL         N/A     11   7  84 NW3       30.19R
LEXINGTON      MOCLDY    11   8  85 NW8       30.22R WCI   0
MCCOOK         MOCLDY    16  12  84 W5        30.22R WCI   9
OGALLALA       MOCLDY     7   2  82 CALM      30.19R
$$

NEZ005>010-023>029-035>040-094-041400-
NORTH CENTRAL NEBRASKA

CITY           SKY/WX    TMP DP  RH WIND       PRES   REMARKS
VALENTINE      CLEAR      2  -3  80 NW7       30.18R WCI -11
AINSWORTH      CLEAR      7   2  77 W8        30.16R WCI  -5
BROKEN BOW     PTCLDY    11   6  81 W8        30.19R WCI  -1
O`NEILL        PTCLDY     7   1  78 W8        30.18S WCI  -6
ORD            PTCLDY    10   1  67 W8        30.21R WCI  -2
THEDFORD       CLEAR      9   4  80 W7        30.17R WCI  -3
$$

NEZ041-046>049-061>064-073>077-083>087-041400-
SOUTH CENTRAL NEBRASKA

CITY           SKY/WX    TMP DP  RH WIND       PRES   REMARKS
GRAND ISLAND   PTCLDY    10   5  80 W7        30.24R WCI  -1
AURORA         PTCLDY     9   5  84 W5        30.23R WCI   0
HASTINGS       PTCLDY    10   5  80 NW8       30.22R WCI  -2
HEBRON         CLEAR     11   9  89 CALM      30.25S
HOLDREGE       MOCLDY    10   7  89 W5        30.22R WCI   1
KEARNEY *      MOCLDY     9   7  92 NW5       30.23R WCI   0
YORK           PTCLDY    10   9  92 NW7       30.24R WCI   0
$$

NEZ011>018-030>034-042>045-041400-
NORTHEAST NEBRASKA

CITY           SKY/WX    TMP DP  RH WIND       PRES   REMARKS
NORFOLK        PTCLDY    12   3  67 W8        30.21R WCI   0
ALBION         FAIR      13   3  64 NW7       30.21R WCI   2
BLAIR          CLEAR     15   7  68 NW3       30.23S
COLUMBUS *     CLEAR     10  -2  56 W5        30.25R WCI   2
FREMONT        PTCLDY    14   9  79 W3        30.25R
TEKAMAH        PTCLDY    12   6  77 W7        30.26R WCI   1
WAYNE          PTCLDY     6   1  82 CALM      30.22S
$$

NEZ050>053-065>068-078-088>093-041400-
SOUTHEAST NEBRASKA

CITY           SKY/WX    TMP DP  RH WIND       PRES   REMARKS
LINCOLN        PTCLDY    14  10  84 W3        30.27R
OMAHA EPPLEY   MOCLDY    16   8  71 CALM      30.26S
BEATRICE       FOG        7   4  90 NW3       30.25S VSB 1/4
FALLS CITY     PTCLDY    15  10  80 N7        30.25S WCI   5
NEBRASKA CITY  CLEAR     11   7  85 NW6       30.25F WCI   1
PLATTSMOUTH    PTCLDY    11   8  86 W5        30.25R WCI   3
$$

NEZ044-045-051>053-067-041400-
OMAHA AREA

CITY           SKY/WX    TMP DP  RH WIND       PRES   REMARKS
OMAHA EPPLEY   MOCLDY    16   8  71 CALM      30.26S
BLAIR          CLEAR     15   7  68 NW3       30.23S
FREMONT        PTCLDY    14   9  79 W3        30.25R
MILLARD        PTCLDY    16  10  76 CALM      30.26S
OFFUTT AFB     PTCLDY    13  10  85 CALM      30.26R
PLATTSMOUTH    PTCLDY    11   8  86 W5        30.25R WCI   3
WAHOO          FAIR      14   9  81 W3        30.25R
$$



USA.gov is the U.S. government's official web portal to all federal, state and local government web resources and services.